Time,TemperatureF,DewpointF,PressureIn,WindDirection,WindDirectionDegrees,WindSpeedMPH,WindSpeedGustMPH,Humidity,HourlyPrecipIn,Conditions,Clouds,dailyrainin,SoftwareType,DateUTC
2013-07-03 00:02:00,71.0,70.0,-100.00,SSW,204,2.0,10.0,97,0.04,,,1.03,,2013-07-03 04:02:00,
2013-07-03 00:34:00,71.0,70.0,-100.00,SSW,204,2.0,10.0,97,0.04,,,1.03,,2013-07-03 04:34:00,
2013-07-03 00:43:00,71.0,70.0,-100.00,SSW,204,2.0,10.0,97,0.04,,,1.03,,2013-07-03 04:43:00,
2013-07-03 00:52:00,71.0,70.0,-100.00,SSW,204,2.0,10.0,97,0.04,,,1.03,,2013-07-03 04:52:00,
2013-07-03 01:02:00,70.0,69.0,-100.00,SW,234,0.0,5.0,97,0.00,,,1.03,,2013-07-03 05:02:00,
2013-07-03 01:41:00,70.0,69.0,-100.00,SW,234,0.0,5.0,97,0.00,,,1.03,,2013-07-03 05:41:00,
2013-07-03 01:48:00,70.0,69.0,-100.00,SW,234,0.0,5.0,97,0.00,,,1.03,,2013-07-03 05:48:00,
2013-07-03 02:01:00,70.0,69.0,-100.00,SW,234,0.0,5.0,97,0.00,,,1.03,,2013-07-03 06:01:00,
2013-07-03 02:02:00,69.0,68.0,-100.00,North,356,0.0,3.0,97,0.00,,,1.03,,2013-07-03 06:02:00,
2013-07-03 02:26:00,69.0,68.0,-100.00,North,356,0.0,3.0,97,0.00,,,1.03,,2013-07-03 06:26:00,
2013-07-03 02:40:00,69.0,68.0,-100.00,North,356,0.0,3.0,97,0.00,,,1.03,,2013-07-03 06:40:00,
2013-07-03 02:58:00,69.0,68.0,-100.00,North,356,0.0,3.0,97,0.00,,,1.03,,2013-07-03 06:58:00,
2013-07-03 03:02:00,70.0,69.0,-100.00,SSW,192,2.0,6.0,97,0.00,,,1.03,,2013-07-03 07:02:00,
2013-07-03 03:40:00,70.0,69.0,-100.00,SSW,192,2.0,6.0,97,0.00,,,1.03,,2013-07-03 07:40:00,
2013-07-03 03:48:00,70.0,69.0,-100.00,SSW,192,2.0,6.0,97,0.00,,,1.03,,2013-07-03 07:48:00,
2013-07-03 04:02:00,69.0,68.0,-100.00,South,173,0.0,6.0,97,0.00,,,1.03,,2013-07-03 08:02:00,
2013-07-03 04:38:00,69.0,68.0,-100.00,South,173,0.0,6.0,97,0.00,,,1.03,,2013-07-03 08:38:00,
2013-07-03 04:48:00,69.0,68.0,-100.00,South,173,0.0,6.0,97,0.00,,,1.03,,2013-07-03 08:48:00,
2013-07-03 04:58:00,69.0,68.0,-100.00,South,173,0.0,6.0,97,0.00,,,1.03,,2013-07-03 08:58:00,
2013-07-03 05:02:00,68.0,67.0,-100.00,SSW,202,1.0,4.0,98,0.00,,,1.03,,2013-07-03 09:02:00,
2013-07-03 05:40:00,68.0,67.0,-100.00,SSW,202,1.0,4.0,98,0.00,,,1.03,,2013-07-03 09:40:00,
2013-07-03 05:48:00,68.0,67.0,-100.00,SSW,202,1.0,4.0,98,0.00,,,1.03,,2013-07-03 09:48:00,
2013-07-03 06:02:00,68.0,67.0,-100.00,SSW,199,2.0,7.0,97,0.00,,,1.03,,2013-07-03 10:02:00,
2013-07-03 06:37:00,68.0,67.0,-100.00,SSW,199,2.0,7.0,97,0.00,,,1.03,,2013-07-03 10:37:00,
2013-07-03 07:02:00,69.0,68.0,-100.00,SSW,200,3.0,5.0,96,0.00,,,1.03,,2013-07-03 11:02:00,
2013-07-03 07:39:00,69.0,68.0,-100.00,SSW,200,3.0,5.0,96,0.00,,,1.03,,2013-07-03 11:39:00,
2013-07-03 07:46:00,69.0,68.0,-100.00,SSW,200,3.0,5.0,96,0.00,,,1.03,,2013-07-03 11:46:00,
2013-07-03 07:59:00,69.0,68.0,-100.00,SSW,200,3.0,5.0,96,0.00,,,1.03,,2013-07-03 11:59:00,
2013-07-03 08:02:00,72.0,69.0,-100.00,South,184,2.0,4.0,90,0.00,,,1.03,,2013-07-03 12:02:00,
2013-07-03 08:38:00,72.0,69.0,-100.00,South,184,2.0,4.0,90,0.00,,,1.03,,2013-07-03 12:38:00,
2013-07-03 08:47:00,72.0,69.0,-100.00,South,184,2.0,4.0,90,0.00,,,1.03,,2013-07-03 12:47:00,
2013-07-03 08:59:00,72.0,69.0,-100.00,South,184,2.0,4.0,90,0.00,,,1.03,,2013-07-03 12:59:00,
2013-07-03 09:02:00,75.0,70.0,-100.00,South,177,3.0,6.0,85,0.00,,,1.03,,2013-07-03 13:02:00,
2013-07-03 09:37:00,75.0,70.0,-100.00,South,177,3.0,6.0,85,0.00,,,1.03,,2013-07-03 13:37:00,
2013-07-03 09:49:00,75.0,70.0,-100.00,South,177,3.0,6.0,85,0.00,,,1.03,,2013-07-03 13:49:00,
2013-07-03 09:56:00,75.0,70.0,-100.00,South,177,3.0,6.0,85,0.00,,,1.03,,2013-07-03 13:56:00,
2013-07-03 10:02:00,72.0,69.0,-100.00,SSW,192,2.0,10.0,90,0.00,,,0.99,,2013-07-03 14:02:00,
2013-07-03 10:38:00,72.0,69.0,-100.00,SSW,192,2.0,10.0,90,0.00,,,0.99,,2013-07-03 14:38:00,
2013-07-03 10:48:00,72.0,69.0,-100.00,SSW,192,2.0,10.0,90,0.00,,,0.99,,2013-07-03 14:48:00,
2013-07-03 10:56:00,72.0,69.0,-100.00,SSW,192,2.0,10.0,90,0.00,,,0.99,,2013-07-03 14:56:00,
2013-07-03 11:02:00,77.0,70.0,-100.00,South,172,2.0,8.0,80,0.00,,,0.99,,2013-07-03 15:02:00,
2013-07-03 11:38:00,77.0,70.0,-100.00,South,172,2.0,8.0,80,0.00,,,0.99,,2013-07-03 15:38:00,
2013-07-03 11:49:00,77.0,70.0,-100.00,South,172,2.0,8.0,80,0.00,,,0.99,,2013-07-03 15:49:00,
2013-07-03 11:57:00,77.0,70.0,-100.00,South,172,2.0,8.0,80,0.00,,,0.99,,2013-07-03 15:57:00,
2013-07-03 12:40:00,80.0,69.0,-100.00,SSW,195,4.0,13.0,70,0.00,,,0.99,,2013-07-03 16:40:00,
2013-07-03 12:47:00,80.0,69.0,-100.00,SSW,195,4.0,13.0,70,0.00,,,0.99,,2013-07-03 16:47:00,
2013-07-03 13:01:00,80.0,69.0,-100.00,SSW,195,4.0,13.0,70,0.00,,,0.99,,2013-07-03 17:01:00,
2013-07-03 13:43:00,80.0,68.0,-100.00,SSW,196,4.0,12.0,66,0.00,,,0.99,,2013-07-03 17:43:00,
2013-07-03 13:50:00,80.0,68.0,-100.00,SSW,196,4.0,12.0,66,0.00,,,0.99,,2013-07-03 17:50:00,
2013-07-03 13:56:00,80.0,68.0,-100.00,SSW,196,4.0,12.0,66,0.00,,,0.99,,2013-07-03 17:56:00,
2013-07-03 14:39:00,80.0,68.0,-100.00,SSW,192,3.0,12.0,68,0.00,,,0.99,,2013-07-03 18:39:00,
2013-07-03 14:47:00,80.0,68.0,-100.00,SSW,192,3.0,12.0,68,0.00,,,0.99,,2013-07-03 18:47:00,
2013-07-03 14:59:00,80.0,68.0,-100.00,SSW,192,3.0,12.0,68,0.00,,,0.99,,2013-07-03 18:59:00,
2013-07-03 15:02:00,81.0,69.0,-100.00,SE,142,2.0,12.0,68,0.00,,,0.99,,2013-07-03 19:02:00,
2013-07-03 15:38:00,81.0,69.0,-100.00,SE,142,2.0,12.0,68,0.00,,,0.99,,2013-07-03 19:38:00,
2013-07-03 15:49:00,81.0,69.0,-100.00,SE,142,2.0,12.0,68,0.00,,,0.99,,2013-07-03 19:49:00,
2013-07-03 15:58:00,81.0,69.0,-100.00,SE,142,2.0,12.0,68,0.00,,,0.99,,2013-07-03 19:58:00,
2013-07-03 16:02:00,81.0,69.0,-100.00,South,188,2.0,8.0,66,0.00,,,0.99,,2013-07-03 20:02:00,
2013-07-03 16:38:00,81.0,69.0,-100.00,South,188,2.0,8.0,66,0.00,,,0.99,,2013-07-03 20:38:00,
2013-07-03 16:47:00,81.0,69.0,-100.00,South,188,2.0,8.0,66,0.00,,,0.99,,2013-07-03 20:47:00,
2013-07-03 16:57:00,81.0,69.0,-100.00,South,188,2.0,8.0,66,0.00,,,0.99,,2013-07-03 20:57:00,
2013-07-03 17:02:00,82.0,69.0,-100.00,South,190,4.0,12.0,66,0.00,,,0.99,,2013-07-03 21:02:00,
2013-07-03 17:37:00,82.0,69.0,-100.00,South,190,4.0,12.0,66,0.00,,,0.99,,2013-07-03 21:37:00,
2013-07-03 17:45:00,82.0,69.0,-100.00,South,190,4.0,12.0,66,0.00,,,0.99,,2013-07-03 21:45:00,
2013-07-03 17:55:00,82.0,69.0,-100.00,South,190,4.0,12.0,66,0.00,,,0.99,,2013-07-03 21:55:00,
2013-07-03 18:02:00,81.0,69.0,-100.00,SSW,193,4.0,10.0,67,0.00,,,0.96,,2013-07-03 22:02:00,
2013-07-03 18:38:00,81.0,69.0,-100.00,SSW,193,4.0,10.0,67,0.00,,,0.96,,2013-07-03 22:38:00,
2013-07-03 18:47:00,81.0,69.0,-100.00,SSW,193,4.0,10.0,67,0.00,,,0.96,,2013-07-03 22:47:00,
2013-07-03 18:57:00,81.0,69.0,-100.00,SSW,193,4.0,10.0,67,0.00,,,0.96,,2013-07-03 22:57:00,
2013-07-03 19:02:00,77.0,68.0,-100.00,SSW,194,3.0,9.0,73,0.00,,,0.35,,2013-07-03 23:02:00,
2013-07-03 19:40:00,77.0,68.0,-100.00,SSW,194,3.0,9.0,73,0.00,,,0.35,,2013-07-03 23:40:00,
2013-07-03 19:46:00,77.0,68.0,-100.00,SSW,194,3.0,9.0,73,0.00,,,0.35,,2013-07-03 23:46:00,
2013-07-03 19:56:00,77.0,68.0,-100.00,SSW,194,3.0,9.0,73,0.00,,,0.35,,2013-07-03 23:56:00,
2013-07-03 20:02:00,75.0,68.0,-100.00,SSW,207,2.0,7.0,80,0.00,,,0.35,,2013-07-04 00:02:00,
2013-07-03 20:27:00,75.0,68.0,-100.00,SSW,207,2.0,7.0,80,0.00,,,0.35,,2013-07-04 00:27:00,
2013-07-03 20:38:00,75.0,68.0,-100.00,SSW,207,2.0,7.0,80,0.00,,,0.35,,2013-07-04 00:38:00,
2013-07-03 20:50:00,75.0,68.0,-100.00,SSW,207,2.0,7.0,80,0.00,,,0.35,,2013-07-04 00:50:00,
2013-07-03 20:57:00,75.0,68.0,-100.00,SSW,207,2.0,7.0,80,0.00,,,0.35,,2013-07-04 00:57:00,
2013-07-03 21:02:00,73.0,69.0,-100.00,SSW,200,3.0,7.0,88,0.00,,,0.31,,2013-07-04 01:02:00,
2013-07-03 21:40:00,73.0,69.0,-100.00,SSW,200,3.0,7.0,88,0.00,,,0.31,,2013-07-04 01:40:00,
2013-07-03 21:47:00,73.0,69.0,-100.00,SSW,200,3.0,7.0,88,0.00,,,0.31,,2013-07-04 01:47:00,
2013-07-03 21:57:00,73.0,69.0,-100.00,SSW,200,3.0,7.0,88,0.00,,,0.31,,2013-07-04 01:57:00,
2013-07-03 22:02:00,72.0,68.0,-100.00,SSW,194,4.0,9.0,87,0.00,,,0.08,,2013-07-04 02:02:00,
2013-07-03 22:41:00,72.0,68.0,-100.00,SSW,194,4.0,9.0,87,0.00,,,0.08,,2013-07-04 02:41:00,
2013-07-03 22:49:00,72.0,68.0,-100.00,SSW,194,4.0,9.0,87,0.00,,,0.08,,2013-07-04 02:49:00,
2013-07-03 22:57:00,72.0,68.0,-100.00,SSW,194,4.0,9.0,87,0.00,,,0.08,,2013-07-04 02:57:00,
2013-07-03 23:02:00,71.0,67.0,-100.00,SSW,194,2.0,10.0,88,0.00,,,0.04,,2013-07-04 03:02:00,
2013-07-03 23:36:00,71.0,67.0,-100.00,SSW,194,2.0,10.0,88,0.00,,,0.04,,2013-07-04 03:36:00,
2013-07-03 23:46:00,71.0,67.0,-100.00,SSW,194,2.0,10.0,88,0.00,,,0.04,,2013-07-04 03:46:00,
2013-07-03 23:57:00,71.0,67.0,-100.00,SSW,194,2.0,10.0,88,0.00,,,0.04,,2013-07-04 03:57:00,